Regional Weather Roundup
Issued by NWS Boston, MA

Home | Current Version | Previous Version | Text Only | Print | Product List | Glossary On
Versions: 1 2 3 4 5 6 7 8 9 10 11 12 13 14 15 16 17 18 19 20 21 22 23 24 25 26 27
000
ASUS41 KBOX 181410
RWRBOX

REGIONAL WEATHER ROUNDUP
NATIONAL WEATHER SERVICE TAUNTON MA
900 AM EST SAT NOV 18 2017

NOTE:  "FAIR" INDICATES FEW OR NO CLOUDS BELOW 12,000 FEET WITH NO
SIGNIFICANT WEATHER AND/OR OBSTRUCTIONS TO VISIBILITY.

MAZALL-181500-
EASTERN MASSACHUSETTS

CITY           SKY/WX    TMP DP  RH WIND       PRES   REMARKS
BOSTON         MOSUNNY   37  19  48 S5        29.95F
BEVERLY        MOSUNNY   35  16  45 W3        29.94F
LAWRENCE       CLOUDY    34  19  54 CALM      29.95F
BEDFORD        CLOUDY    33  21  61 CALM      29.93F
BLUE HILL      NOT AVBL
NORWOOD        CLOUDY    36  25  64 CALM      29.95F
MARSHFIELD     SUNNY     36  19  51 SW3       29.96F
PLYMOUTH       MOSUNNY   36  21  54 SW3       29.96F
TAUNTON        CLOUDY    35  23  61 CALM      29.96F
NEW BEDFORD    CLOUDY    36  26  67 CALM      29.96F
$$

MAZALL-181500-
CAPE COD AND THE ISLANDS

CITY           SKY/WX    TMP DP  RH WIND       PRES   REMARKS
FALMOUTH       SUNNY     39  18  41 CALM      29.97F
HYANNIS        SUNNY     43  19  39 CALM      29.95F
CHATHAM        SUNNY     42  17  36 CALM      29.98F
PROVINCETOWN   SUNNY     41  25  53 SW8       29.97F
NANTUCKET      SUNNY     46  28  49 NW3       29.97F
MARTHAS VNYRD  SUNNY     44  29  55 CALM      29.97F
$$

MAZALL-181500-
CENTRAL AND WESTERN MASSACHUSETTS

CITY           SKY/WX    TMP DP  RH WIND       PRES   REMARKS
WORCESTER      CLOUDY    33  11  39 SW6       29.90F WCI  28
FITCHBURG      CLOUDY    35  20  54 SE3       29.94F
ORANGE         CLOUDY    25  22  88 CALM      29.94S
SPRINGFIELD    PTSUNNY   27  21  78 CALM      29.94F
WESTFIELD      CLOUDY    27  22  81 CALM      29.94F
NORTH ADAMS    CLOUDY    28  18  66 E10       29.88F WCI  19
PITTSFIELD     CLOUDY    26  19  74 CALM      29.86F
$$

RIZALL-181500-
RHODE ISLAND

CITY           SKY/WX    TMP DP  RH WIND       PRES   REMARKS
PROVIDENCE     CLOUDY    36  21  54 VRB3      29.97F
NEWPORT        MOSUNNY   40  23  50 CALM      29.96F
BLOCK ISLAND   CLOUDY    45  28  51 W10       29.98F
SMITHFIELD     CLOUDY    35  19  52 SW3       29.94F
WESTERLY       CLOUDY    36  25  64 CALM      29.98F
$$

CTZALL-181500-
CONNECTICUT

CITY           SKY/WX    TMP DP  RH WIND       PRES   REMARKS
BRADLEY INTL   CLOUDY    28  22  78 CALM      29.95F
HARTFORD       CLOUDY    30  22  72 S3        29.95F
BRIDGEPORT     CLOUDY    36  25  64 NE5       29.95F
DANBURY        CLOUDY    30  23  75 CALM      29.94F
GROTON         CLOUDY    36  24  62 CALM      29.96F
NEW HAVEN      CLOUDY    33  23  66 NE3       29.95F
CHESTER        FAIR      36  21  55 CALM      29.94F
MERIDEN        CLOUDY    27  21  78 CALM      29.95F
WILLIMANTIC    CLOUDY    29  23  78 CALM      29.96F
OXFORD         CLOUDY    33  23  66 S5        29.92F WCI  29
$$

MEZ002-015-021-024-NHZ003-005-008-011-012-014-VTZ005-008-181500-
NORTHERN NEW ENGLAND

CITY           SKY/WX    TMP DP  RH WIND       PRES   REMARKS
PORTLAND ME    MOSUNNY   31  16  54 SW3       29.95S
BANGOR ME      MOSUNNY   30  15  53 NW8       29.91F WCI  22
CONCORD NH     CLOUDY    31  17  56 CALM      29.93F
MANCHESTER NH  CLOUDY    30  18  60 CALM      29.92F
NASHUA NH      CLOUDY    31  20  63 CALM      29.94F
PORTSMOUTH NH  PTSUNNY   34  14  43 W3        29.93F
JAFFREY NH     CLOUDY    31  17  56 CALM      29.90F
KEENE NH       FLURRIES  27  25  92 NW7       29.93F WCI  19
BURLINGTON VT  CLOUDY    31  16  54 S8        29.83F WCI  23
MT. WASHINGTON PTSUNNY   28   1  31 W12         N/A  WCI  18
$$

NYZ052-076-181500-
EASTERN NEW YORK

CITY           SKY/WX    TMP DP  RH WIND       PRES   REMARKS
ALBANY         CLOUDY    29  20  69 SW3       29.89F
NEW YORK CITY  CLOUDY    43  26  51 CALM      29.95F
$$

ANZALL-181500-
MARINE OBSERVATIONS

STATION/POSITION TIME  TEMP    WIND        PRES    VSBY  WAVE
                       AIR SEA DIR/SP/G                  HT/PER
                 (UTC) (F)     (DEG/KT/KT) (MB)    (MI)  (FT/S)
BOSTON BUOY      1350   39 50  240/  6/ 10 1013.4F         1/11
BUZZARDS BAY     1300   42     250/  5/  6 1015.8F
NANTUCKET SOUND  1350   45 49  270/  4/  4 1014.9F         1
MASS BAY-STELLWA 1304   38 50  250/  8/ 12 1014.0S         1/ 3
ISLE OF SHOALS   1400   35     280/  6/  8 1013.9F
S OF BLOCK IS    NOT AVBL
$$

......................KEY.........................
  SKY/WX - SKY CONDITION/PRESENT WEATHER
  TMP    - TEMPERATURE IN FAHRENHEIT
  DWPT   - DEWPOINT IN FAHRENHEIT
  RH     - RELATIVE HUMIDITY IN PERCENT
  WIND   - DIRECTION AND SPEED IN MPH
  PRES   - MEAN SEA LEVEL PRESSURE IN INCHES OF HG
  WCI    - WIND CHILL INDEX
  VSB    - VISIBILITY IN MILES
  HX     - HEAT INDEX
  TC     - TEMPERATURE IN CELSIUS
  VRB    - VARIABLE WIND DIRECTION
  N/A    - NOT AVAILABLE




USA.gov is the U.S. government's official web portal to all federal, state and local government web resources and services.